OPS 4682 DEB, 18427

Orbit data source: Space-Track

OPS 4682 DEB, 18427 is space debris in LEO originally from a launch on Sat, 03 Apr 1965 UTC launched from the Air Force Western Test Range (AFWTR). Debris objects in space refer to the collection of defunct objects orbiting the Earth. Examples of debris include non-operational satellites, rocket bodies, and fragments generated from explosions, collisions, or faulty payload assembly.

Loading next visibility...
Identifier
18427, 1965-027AB
Orbit
LEO
Country
Flag of USUS
Related business
Manufacturer
Unknown
Mission
Spacecraft
Bus & Motor
Unknown
Mass
Unknown
Launch date (UTC)
1965-04-03 (61 years ago)
Launch vehicle
Unknown
Launch site
Air Force Western Test Range (AFWTR)
Object type
Payload
Rocket body
Debris
Shape & HBR
Unknown shape, 0.1 m
Radar Cross Section
Small (<0.1 m²)

Expand to show TLE details & history
Last TLE update: 7 hours ago

TLE from 7 hours ago
0 OPS 4682 DEB
1 18427U 65027AB  26119.42110704  .00000424  00000-0  12907-2 0  9991
2 18427  90.2786   3.3754 0022158   1.0290 174.7134 13.04890819951979
Epoch: 2026-04-29T10:06Z
TLE epoch observation values (Epoch: 2026-04-29T10:06:23.648Z)
Latitude
4.14603°
Longitude
174.41465°
Altitude
1,262.252 km
Speed
7.217 km/s
True Right ascension
12h 13m 34s
True Declination
4° 07' 23"
Sunlit
Object was in full shadow at epoch
Visualization orbit readout
Latitude
Unknown
Longitude
Unknown
Altitude
Unknown
Speed
Unknown
Apparent Right ascension
Unknown
Apparent Declination
Unknown
Sunlit
N/A
Visualization observer readout
Local Sidereal Time
00:35:58
Azimuth
Unknown
Elevation
Unknown
Doppler factor
Unknown
Orbital elements
Apogee altitude
1,256.984 km
Perigee altitude
1,223.223 km
Semi-major axis
7,618.241 km
Eccentricity
0.00222
Inclination
90.2786°
RAAN
3.3754°
Arg. of periapsis
1.029°
True anomaly
174.73673°
Mean anomaly
174.7134°
Eccentric anomaly
174.72507°
Mean motion
3.26408 °/min
Orbital period
110.29 mins
BSTAR
0.0012907
Loading maneuver chart data...
Computing Atmospheric mass density...
Loading historical data...
Loading historical data...
Loading historical data...
Loading historical data...
Loading historical data...
Loading historical data...
Loading historical data...

Documentation

Showing up to 5 results
|